Simultaneous Nadir Overpasses (SNOs) Predictions

Prediction of SNOs between GOES-16 and NOAA-20 Satellite Orbit:

Table of predicted SNOs for the next 14.0 days since TLE Epoch: 3/26/2022
Index Date Time (GOES-16) GOES-16 Lat,Lon NOAA-20 Lat,Lon Distance(km) Time Diff (sec)
1 03/26/2022 18:10:52 0.06, -75.22 0.96, -71.21 457.35 80
2 03/28/2022 06:32:42 -0.05, -75.22 0.21, -76.48 143.99 80
3 03/29/2022 06:11:17 -0.05, -75.22 -0.77, -71.95 372.83 80
4 03/30/2022 18:33:15 0.04, -75.24 -0.43, -77.25 228.98 80
5 03/31/2022 18:17:11 0.04, -75.26 0.61, -72.72 288.53 80
6 04/02/2022 06:39:00 -0.04, -75.27 0.56, -78.00 310.93 80
7 04/03/2022 06:17:37 -0.04, -75.28 -0.48, -73.47 206.75 80
8 04/04/2022 18:39:34 0.04, -75.31 -0.71, -78.78 394.23 80
9 04/05/2022 18:23:30 0.04, -75.33 0.27, -74.24 123.88 80
10 04/07/2022 06:45:19 -0.03, -75.35 0.89, -79.51 474.55 80
11 04/08/2022 06:23:56 -0.03, -75.37 -0.15, -74.99 43.70 80
